IRIDIUM 98 [-] (27451 NORAD) Tracking and Keplerian Element Data

This shows tracking and keplerian element data for the satellite.

Feedback or suggestion? Click here.




ElementValue
Catalog27451
NameIRIDIUM 98 [-]
Epoch Orbit85384
Epoch Day236.15507608
Epoch Year2018
RAAN197.5129
Inclination86.3471
Eccentricity0.0051157
Argument of Perigee208.2883
Mean Anonmoly151.5649
Mean Motion16.44711143
Decay Rate0.1621131
L11 27451U 02031B 18236.15507608 .16211310 -22787-5 17564-3 0 9990
L22 27451 86.3471 197.5129 0051157 208.2883 151.5649 16.44711143853845

Live tracking and technical data element details for IRIDIUM 98 [-] (NORAD 27451). IRIDIUM 98 [-] can be tracked NOW for your location showing map with azimuth and elevation plus other details from your city location.

Track the satellite on the map from your city or location and see movement details for azimuth, elevation, latitude, longitude, range, height, and movement on the map or in text.







IsCatalogInMostPopularTable: catalog: 27451, numindb: 60
Update: records affected: 1



GetName: 27451 IRIDIUM 98 [-]

Hit Count: updated at: Wed, 21 Nov 2018 06:10:20 GMT